User: anonymous   Login
Location: Unspecified
(0.0000°N, 0.0000°E)
Time: 20:14:25
(UTC+00:00)
Language:

USA 112 - Orbit

View from above orbital plane
View from above orbital plane
View from above satellite
View from above satellite

Ground track
Ground track

The orbit data is extracted from the following two-line orbital elements,

1 23609U 95034A   21081.57839969 0.00000000  00000-0  00000-0 0    02
2 23609  63.0712 328.7692 7204154 271.0844  88.9159  2.00630255    00
Epoch (UTC): 22 March 2021 13:52:53
Eccentricity: 0.7204154
inclination: 63.0712°
perigee height: 1046 km
apogee height: 39306 km
right ascension of ascending node: 328.7692°
argument of perigee: 271.0844°
revolutions per day: 2.00630255
mean anomaly at epoch: 88.9159°
orbit number at epoch: 0

The dashed part of the orbit path shows where the satellite is in the earth's shadow,  

DLR